Weather History for Minot, ND

Change the Weather History Date:

Sunday, August 10, 2014

  Actual Average Record
Temperature  
Mean Temperature 65 °F 70 °F  
Max Temperature 74 °F 83 °F 104 °F (1936)
Min Temperature 55 °F 57 °F 36 °F (1921)
Degree Days  
Heating Degree Days 1    
Cooling Degree Days 0 6  
Month to date cooling degree days 42 60  
Year to date cooling degree days 214 318  
Since 1 June cooling degree days 173 302  
Growing Degree Days 14 (Base 50)    
Moisture  
Dew Point 52 °F    
Average Humidity 66    
Maximum Humidity 90    
Minimum Humidity 41    
Precipitation  
Precipitation 0.00 in 0.06 in 0.70 in (1962)
Month to date precipitation 0.01 0.66  
Year to date precipitation 10.88 12.06  
Sea Level Pressure  
Sea Level Pressure 30.19 in    
Wind  
Wind Speed 8 mph (NW)    
Max Wind Speed 20 mph    
Max Gust Speed 25 mph    
Visibility 10 miles    
Events      
T = Trace of Precipitation, MM = Missing Value Source: NWS Daily Summary

Daily Weather History Graph

Daily Weather History Graph

Search for Another Location

Airport:

Trip Planner

Search our weather history database for the weather conditions in past years. The results will help you decide how hot, cold, wet, or windy it might be!

Date:

Astronomy

Aug. 10, 2014 Rise Set
Actual Time 6:32 AM CDT 9:07 PM CDT
Civil Twilight 5:57 AM CDT 9:42 PM CDT
Nautical Twilight 5:12 AM CDT 10:26 PM CDT
Astronomical Twilight 4:20 AM CDT 11:18 PM CDT
Moon 8:48 PM CDT (8/10) 6:31 AM CDT (8/10)
Length of Visible Light 15h 45m
Length of Day
14h 34m
Full, 100% of the Moon is Illuminated
Aug 10
Full
Aug 10
Full
Aug 17
Last Quarter
Aug 25
New
Sep 2
First Quarter

Hourly Weather History & Observations

Time (CDT) Temp. Dew Point Humidity Pressure Visibility Wind Dir Wind Speed Gust Speed Precip Events Conditions
12:54 AM 63.0 °F 59.0 °F 87% 30.09 in 10.0 mi WNW 9.2 mph - N/A   Clear
1:54 AM 62.1 °F 57.0 °F 84% 30.10 in 10.0 mi NW 9.2 mph - N/A   Partly Cloudy
2:54 AM 62.1 °F 55.0 °F 78% 30.12 in 10.0 mi NW 11.5 mph - N/A   Overcast
3:54 AM 57.2 °F 53.6 °F 88% 30.14 in 10.0 mi WNW 8.1 mph - N/A   Clear
4:54 AM 55.9 °F 52.0 °F 87% 30.14 in 10.0 mi WNW 9.2 mph - N/A   Clear
5:54 AM 55.0 °F 51.1 °F 86% 30.16 in 10.0 mi WNW 9.2 mph - N/A   Clear
6:54 AM 55.4 °F 51.8 °F 88% 30.18 in 10.0 mi WNW 8.1 mph - N/A   Clear
7:54 AM 59.0 °F 52.0 °F 78% 30.20 in 10.0 mi WNW 8.1 mph - N/A   Clear
8:54 AM 62.6 °F 53.6 °F 72% 30.21 in 10.0 mi NW 11.5 mph - N/A   Clear
9:54 AM 64.9 °F 51.1 °F 61% 30.21 in 10.0 mi North 8.1 mph - N/A   Clear
10:54 AM 66.0 °F 52.0 °F 60% 30.22 in 10.0 mi NW 8.1 mph - N/A   Clear
11:54 AM 69.1 °F 51.1 °F 53% 30.22 in 10.0 mi NNW 8.1 mph - N/A   Scattered Clouds
12:54 PM 72.0 °F 50.0 °F 46% 30.22 in 10.0 mi NW 15.0 mph 23.0 mph N/A   Scattered Clouds
1:54 PM 72.0 °F 48.0 °F 43% 30.22 in 10.0 mi NW 13.8 mph - N/A   Mostly Cloudy
2:54 PM 73.0 °F 48.0 °F 41% 30.21 in 10.0 mi NW 13.8 mph 25.3 mph N/A   Scattered Clouds
3:54 PM 73.0 °F 50.0 °F 44% 30.20 in 10.0 mi NNW 12.7 mph - N/A   Mostly Cloudy
4:54 PM 70.0 °F 50.0 °F 49% 30.21 in 10.0 mi NW 10.4 mph - N/A   Partly Cloudy
5:54 PM 72.0 °F 51.1 °F 48% 30.20 in 10.0 mi NW 10.4 mph - N/A   Partly Cloudy
6:54 PM 73.0 °F 51.1 °F 46% 30.19 in 10.0 mi North 6.9 mph - N/A   Partly Cloudy
7:54 PM 70.0 °F 53.1 °F 55% 30.19 in 10.0 mi North 6.9 mph - N/A   Clear
8:54 PM 64.0 °F 54.0 °F 70% 30.19 in 10.0 mi North 3.5 mph - N/A   Clear
9:54 PM 60.1 °F 52.0 °F 75% 30.21 in 10.0 mi Calm Calm - N/A   Clear
10:54 PM 57.9 °F 51.1 °F 78% 30.22 in 10.0 mi Calm Calm - N/A   Clear
11:54 PM 57.9 °F 51.1 °F 78% 30.22 in 10.0 mi WSW 3.5 mph - N/A   Clear